User: anonymous   Login
Location: Wildcat Hills Observatory
(41.6350°N, 103.6812°W)
Time: 08:41:39
(UTC-06:00)
Language:

Cosmos 1634 Rocket - Orbit

View from above orbital plane
View from above orbital plane
View from above satellite
View from above satellite

Ground track
Ground track

The orbit data is extracted from the following two-line orbital elements,

1 15598U 85022B   17115.71681247 -.00000036 +00000-0 -52117-4 0  9997
2 15598 082.9356 146.1148 0020707 254.9967 242.7892 13.76567150613001
Epoch (UTC): 25 April 2017 17:12:12
Eccentricity: 0.0020707
inclination: 82.9356°
perigee height: 961 km
apogee height: 991 km
right ascension of ascending node: 146.1148°
argument of perigee: 254.9967°
revolutions per day: 13.76567150
mean anomaly at epoch: 242.7892°
orbit number at epoch: 61300

The dashed part of the orbit path shows where the satellite is in the earth's shadow,  

DLR